RYR496E LEZL-GCFV

Flight info

Callsign RYR496E
Flight time 1h 53m
Altitude 35000
Route CLANA N857 KORNO UN857 IBALU/N0440F370 UN857 TERTO
Aircraft B738/M-SDFGILRWY/SB1

Departure

Time 2026-04-27 10:53
Airport Seville Airport (LEZL)

Arrival

Time 2026-04-27 12:47
Airport Fuerteventura Airport (GCFV)
Time Latitude Longitude Altitude Speed Heading
2026-04-27 10:32 37.42213 -5.89948 97 ft 0 kts 315°
2026-04-27 10:45 37.42205 -5.89938 97 ft 2 kts 314°
2026-04-27 10:45 37.42195 -5.89924 97 ft 2 kts 315°
2026-04-27 10:45 37.42184 -5.89911 97 ft 2 kts 315°
2026-04-27 10:46 37.42177 -5.89903 97 ft 2 kts 313°
2026-04-27 10:46 37.42171 -5.89886 97 ft 2 kts 270°
2026-04-27 10:46 37.42175 -5.89867 97 ft 2 kts 236°
2026-04-27 10:46 37.42180 -5.89861 97 ft 1 kts 219°
2026-04-27 10:47 37.42182 -5.89857 97 ft 0 kts 224°
2026-04-27 10:48 37.42180 -5.89860 97 ft 2 kts 224°
2026-04-27 10:48 37.42138 -5.89914 95 ft 14 kts 225°
2026-04-27 10:49 37.42076 -5.89992 92 ft 3 kts 225°
2026-04-27 10:49 37.42053 -5.90041 90 ft 10 kts 259°
2026-04-27 10:49 37.42032 -5.90094 89 ft 9 kts 199°
2026-04-27 10:49 37.41982 -5.90136 88 ft 11 kts 255°
2026-04-27 10:50 37.41978 -5.90268 86 ft 18 kts 269°
2026-04-27 10:50 37.41978 -5.90458 85 ft 24 kts 270°
2026-04-27 10:50 37.41977 -5.90667 83 ft 25 kts 270°
2026-04-27 10:50 37.41977 -5.90881 82 ft 15 kts 270°
2026-04-27 10:51 37.41956 -5.90973 83 ft 13 kts 239°
2026-04-27 10:51 37.41899 -5.91095 82 ft 19 kts 240°
2026-04-27 10:51 37.41842 -5.91192 82 ft 11 kts 208°
2026-04-27 10:51 37.41790 -5.91187 82 ft 5 kts 118°
2026-04-27 10:52 37.41787 -5.91135 81 ft 5 kts 89°
2026-04-27 10:52 37.41788 -5.91030 81 ft 32 kts 90°
2026-04-27 10:52 37.41789 -5.90435 84 ft 100 kts 90°
2026-04-27 10:52 37.41795 -5.89303 92 ft 155 kts 90°
2026-04-27 10:53 37.41798 -5.87849 479 ft 170 kts 89°
2026-04-27 10:53 37.40547 -5.85388 1694 ft 187 kts 149°
2026-04-27 10:53 37.39279 -5.84843 2040 ft 206 kts 172°
2026-04-27 10:54 37.37788 -5.84994 2403 ft 225 kts 199°
2026-04-27 10:54 37.36493 -5.86106 2978 ft 233 kts 231°
2026-04-27 10:54 37.35819 -5.87939 3590 ft 237 kts 256°
2026-04-27 10:54 37.35492 -5.89959 4209 ft 239 kts 251°
2026-04-27 10:55 37.34637 -5.91719 4832 ft 237 kts 221°
2026-04-27 10:55 37.33360 -5.93012 5470 ft 238 kts 214°
2026-04-27 10:55 37.32043 -5.94260 6126 ft 239 kts 216°
2026-04-27 10:55 37.30749 -5.95596 6786 ft 241 kts 218°
2026-04-27 10:56 37.29493 -5.96968 7457 ft 242 kts 219°
2026-04-27 10:56 37.28241 -5.98360 8136 ft 243 kts 220°
2026-04-27 10:56 37.26973 -5.99768 8834 ft 243 kts 220°
2026-04-27 10:56 37.25712 -6.01164 9504 ft 245 kts 220°
2026-04-27 10:57 37.24441 -6.02569 10166 ft 247 kts 220°
2026-04-27 10:57 37.23139 -6.04007 10828 ft 249 kts 220°
2026-04-27 10:57 37.21842 -6.05438 11514 ft 250 kts 220°
2026-04-27 10:57 37.20542 -6.06874 12168 ft 253 kts 220°
2026-04-27 10:58 37.19200 -6.08355 12644 ft 265 kts 220°
2026-04-27 10:58 37.17778 -6.09925 13092 ft 278 kts 220°
2026-04-27 10:58 37.16273 -6.11585 13490 ft 294 kts 220°
2026-04-27 10:58 37.14704 -6.13317 13902 ft 309 kts 220°
2026-04-27 10:59 37.13055 -6.15137 14275 ft 324 kts 220°
2026-04-27 10:59 37.11327 -6.17045 14671 ft 340 kts 220°
2026-04-27 10:59 37.09370 -6.18837 15086 ft 352 kts 205°
2026-04-27 11:00 37.04579 -6.20336 16372 ft 361 kts 188°
2026-04-27 11:00 37.02096 -6.20727 17039 ft 364 kts 187°
2026-04-27 11:00 36.99607 -6.21318 17663 ft 369 kts 196°
2026-04-27 11:00 36.97253 -6.22613 18241 ft 374 kts 212°
2026-04-27 11:01 36.95183 -6.24569 18945 ft 375 kts 221°
2026-04-27 11:01 36.93234 -6.26807 19575 ft 379 kts 223°
2026-04-27 11:01 36.91334 -6.29057 20211 ft 381 kts 223°
2026-04-27 11:01 36.89369 -6.31341 20816 ft 385 kts 222°
2026-04-27 11:02 36.87391 -6.33580 21472 ft 386 kts 221°
2026-04-27 11:02 36.85376 -6.35813 22031 ft 390 kts 221°
2026-04-27 11:02 36.83340 -6.38032 22607 ft 393 kts 221°
2026-04-27 11:02 36.81262 -6.40275 23128 ft 396 kts 221°
2026-04-27 11:03 36.79182 -6.42507 23695 ft 399 kts 220°
2026-04-27 11:03 36.77084 -6.44748 24229 ft 402 kts 220°
2026-04-27 11:03 36.74934 -6.47044 24772 ft 405 kts 220°
2026-04-27 11:03 36.72810 -6.49308 25305 ft 407 kts 220°
2026-04-27 11:04 36.70639 -6.51621 25770 ft 410 kts 220°
2026-04-27 11:04 36.68473 -6.53930 26289 ft 412 kts 220°
2026-04-27 11:04 36.66301 -6.56243 26738 ft 415 kts 220°
2026-04-27 11:04 36.64101 -6.58589 27223 ft 417 kts 220°
2026-04-27 11:05 36.61916 -6.60919 27650 ft 419 kts 220°
2026-04-27 11:05 36.59689 -6.63293 28121 ft 421 kts 220°
2026-04-27 11:05 36.57466 -6.65664 28484 ft 424 kts 219°
2026-04-27 11:05 36.55206 -6.68075 28901 ft 427 kts 219°
2026-04-27 11:06 36.52950 -6.70482 29270 ft 430 kts 219°
2026-04-27 11:06 36.50693 -6.72890 29726 ft 430 kts 219°
2026-04-27 11:06 36.48394 -6.75312 30074 ft 433 kts 219°
2026-04-27 11:06 36.46074 -6.77713 30598 ft 431 kts 219°
2026-04-27 11:07 36.43789 -6.80059 31110 ft 429 kts 219°
2026-04-27 11:07 36.41474 -6.82428 31598 ft 427 kts 219°
2026-04-27 11:07 36.39198 -6.84757 32038 ft 426 kts 219°
2026-04-27 11:07 36.36904 -6.87107 32461 ft 426 kts 219°
2026-04-27 11:08 36.34606 -6.89460 32853 ft 425 kts 219°
2026-04-27 11:08 36.32355 -6.91765 33359 ft 421 kts 219°
2026-04-27 11:08 36.30095 -6.94079 33798 ft 419 kts 219°
2026-04-27 11:08 36.27844 -6.96385 34176 ft 418 kts 219°
2026-04-27 11:09 36.25614 -6.98667 34564 ft 416 kts 219°
2026-04-27 11:09 36.23380 -7.00953 34912 ft 415 kts 219°
2026-04-27 11:09 36.18897 -7.05534 34915 ft 415 kts 219°
2026-04-27 11:10 36.14428 -7.10098 34914 ft 414 kts 219°
2026-04-27 11:10 36.09979 -7.14632 34916 ft 413 kts 219°
2026-04-27 11:11 36.05519 -7.19168 34908 ft 413 kts 219°
2026-04-27 11:11 36.01070 -7.23687 34912 ft 413 kts 219°
2026-04-27 11:12 35.96636 -7.28185 34909 ft 412 kts 219°
2026-04-27 11:12 35.92229 -7.32645 34910 ft 412 kts 219°
2026-04-27 11:13 35.87760 -7.37162 34911 ft 413 kts 219°
2026-04-27 11:13 35.83314 -7.41652 34911 ft 413 kts 219°
2026-04-27 11:14 35.78885 -7.46095 34905 ft 412 kts 219°
2026-04-27 11:14 35.74445 -7.50520 34916 ft 412 kts 219°
2026-04-27 11:15 35.69989 -7.54955 34911 ft 412 kts 219°
2026-04-27 11:15 35.65540 -7.59381 34897 ft 411 kts 219°
2026-04-27 11:16 35.61094 -7.63796 34901 ft 412 kts 219°
2026-04-27 11:16 35.56621 -7.68235 34902 ft 411 kts 218°
2026-04-27 11:17 35.52193 -7.72622 34897 ft 412 kts 218°
2026-04-27 11:17 35.47722 -7.77046 34895 ft 411 kts 218°
2026-04-27 11:18 35.43280 -7.81435 34895 ft 411 kts 218°
2026-04-27 11:18 35.38811 -7.85858 34897 ft 410 kts 219°
2026-04-27 11:19 35.34393 -7.90275 34886 ft 410 kts 219°
2026-04-27 11:19 35.29984 -7.94688 34882 ft 410 kts 219°
2026-04-27 11:20 35.25552 -7.99116 34878 ft 410 kts 219°
2026-04-27 11:20 35.21162 -8.03491 34881 ft 409 kts 218°
2026-04-27 11:21 35.16729 -8.07900 34879 ft 410 kts 218°
2026-04-27 11:21 35.12323 -8.12275 34871 ft 410 kts 218°
2026-04-27 11:22 35.07883 -8.16676 34872 ft 410 kts 219°
2026-04-27 11:22 35.03478 -8.21036 34868 ft 410 kts 219°
2026-04-27 11:23 34.99048 -8.25415 34869 ft 410 kts 219°
2026-04-27 11:23 34.94626 -8.29780 34881 ft 411 kts 218°
2026-04-27 11:24 34.90163 -8.34180 34872 ft 411 kts 218°
2026-04-27 11:24 34.85690 -8.38583 34872 ft 410 kts 218°
2026-04-27 11:25 34.81229 -8.42967 34875 ft 411 kts 218°
2026-04-27 11:25 34.76802 -8.47312 34877 ft 410 kts 218°
2026-04-27 11:26 34.72353 -8.51672 34887 ft 411 kts 218°
2026-04-27 11:26 34.67883 -8.56048 34887 ft 411 kts 218°
2026-04-27 11:27 34.63458 -8.60370 34891 ft 411 kts 218°
2026-04-27 11:27 34.58976 -8.64745 34891 ft 412 kts 218°
2026-04-27 11:28 34.54522 -8.69086 34891 ft 412 kts 218°
2026-04-27 11:28 34.50048 -8.73438 34881 ft 412 kts 218°
2026-04-27 11:29 34.45582 -8.77779 34889 ft 412 kts 218°
2026-04-27 11:29 34.41115 -8.82103 34881 ft 411 kts 218°
2026-04-27 11:30 34.36629 -8.86415 34886 ft 412 kts 218°
2026-04-27 11:30 34.32130 -8.90731 34887 ft 413 kts 217°
2026-04-27 11:31 34.27632 -8.95042 34886 ft 413 kts 217°
2026-04-27 11:31 34.23114 -8.99369 34883 ft 413 kts 217°
2026-04-27 11:32 34.18635 -9.03654 34885 ft 414 kts 217°
2026-04-27 11:32 34.14087 -9.07997 34885 ft 414 kts 218°
2026-04-27 11:33 34.09562 -9.12313 34885 ft 414 kts 218°
2026-04-27 11:33 34.05041 -9.16618 34888 ft 413 kts 217°
2026-04-27 11:34 34.00547 -9.20893 34884 ft 413 kts 217°
2026-04-27 11:34 33.96022 -9.25191 34876 ft 414 kts 217°
2026-04-27 11:35 33.91501 -9.29478 34865 ft 413 kts 217°
2026-04-27 11:35 33.86962 -9.33775 34876 ft 414 kts 217°
2026-04-27 11:36 33.82399 -9.38091 34881 ft 415 kts 217°
2026-04-27 11:36 33.77871 -9.42369 34887 ft 415 kts 218°
2026-04-27 11:37 33.73338 -9.46645 34889 ft 415 kts 218°
2026-04-27 11:37 33.68775 -9.50943 34888 ft 415 kts 217°
2026-04-27 11:38 33.64231 -9.55218 34891 ft 415 kts 217°
2026-04-27 11:38 33.59663 -9.59510 34891 ft 416 kts 217°
2026-04-27 11:39 33.55106 -9.63785 34891 ft 416 kts 217°
2026-04-27 11:39 33.50555 -9.68047 34893 ft 416 kts 217°
2026-04-27 11:40 33.45974 -9.72333 34901 ft 416 kts 217°
2026-04-27 11:40 33.41423 -9.76584 34905 ft 417 kts 217°
2026-04-27 11:41 33.36841 -9.80858 34914 ft 417 kts 217°
2026-04-27 11:41 33.32264 -9.85121 34912 ft 417 kts 217°
2026-04-27 11:42 33.27690 -9.89376 34915 ft 417 kts 217°
2026-04-27 11:42 33.23089 -9.93650 34916 ft 417 kts 217°
2026-04-27 11:43 33.18514 -9.97895 34918 ft 417 kts 217°
2026-04-27 11:43 33.13943 -10.02129 34923 ft 417 kts 217°
2026-04-27 11:44 33.09359 -10.06370 34927 ft 417 kts 217°
2026-04-27 11:44 33.04732 -10.10644 34928 ft 418 kts 217°
2026-04-27 11:45 33.00912 -10.14169 34930 ft 419 kts 217°
2026-04-27 11:45 32.95549 -10.19107 34929 ft 419 kts 217°
2026-04-27 11:46 32.90935 -10.23347 34931 ft 419 kts 217°
2026-04-27 11:46 32.86314 -10.27588 34932 ft 418 kts 217°
2026-04-27 11:47 32.81696 -10.31821 34929 ft 419 kts 217°
2026-04-27 11:47 32.77084 -10.36041 34928 ft 420 kts 217°
2026-04-27 11:48 32.72465 -10.40263 34928 ft 420 kts 217°
2026-04-27 11:48 32.67831 -10.44494 34928 ft 420 kts 217°
2026-04-27 11:49 32.63184 -10.48730 34927 ft 419 kts 217°
2026-04-27 11:49 32.58563 -10.52937 34933 ft 420 kts 217°
2026-04-27 11:50 32.53903 -10.57174 34933 ft 420 kts 217°
2026-04-27 11:50 32.49265 -10.61385 34934 ft 419 kts 217°
2026-04-27 11:51 32.44644 -10.65574 34936 ft 420 kts 216°
2026-04-27 11:52 32.37649 -10.71906 34937 ft 421 kts 216°
2026-04-27 11:52 32.33009 -10.76100 34942 ft 422 kts 217°
2026-04-27 11:53 32.28339 -10.80315 34943 ft 421 kts 217°
2026-04-27 11:53 32.23674 -10.84518 34946 ft 422 kts 217°
2026-04-27 11:54 32.19007 -10.88718 34941 ft 422 kts 217°
2026-04-27 11:54 32.14368 -10.92888 34945 ft 422 kts 217°
2026-04-27 11:55 32.09694 -10.97084 34943 ft 421 kts 217°
2026-04-27 11:55 32.05032 -11.01263 34943 ft 422 kts 217°
2026-04-27 11:56 32.00334 -11.05468 34942 ft 423 kts 217°
2026-04-27 11:56 31.95636 -11.09670 34936 ft 423 kts 217°
2026-04-27 11:57 31.90940 -11.13863 34931 ft 423 kts 217°
2026-04-27 11:57 31.86240 -11.18056 34930 ft 424 kts 217°
2026-04-27 11:58 31.81558 -11.22228 34932 ft 425 kts 217°
2026-04-27 11:58 31.76850 -11.26418 34933 ft 424 kts 217°
2026-04-27 11:59 31.72148 -11.30602 34943 ft 424 kts 217°
2026-04-27 11:59 31.67459 -11.34783 34938 ft 423 kts 217°
2026-04-27 12:00 31.62781 -11.38952 34942 ft 423 kts 217°
2026-04-27 12:00 31.58073 -11.43139 34944 ft 424 kts 217°
2026-04-27 12:01 31.53394 -11.47297 34942 ft 424 kts 217°
2026-04-27 12:01 31.48667 -11.51490 34962 ft 425 kts 217°
2026-04-27 12:02 31.43965 -11.55657 34964 ft 425 kts 217°
2026-04-27 12:02 31.39243 -11.59836 34971 ft 424 kts 217°
2026-04-27 12:03 31.34559 -11.63974 34969 ft 423 kts 217°
2026-04-27 12:03 31.29860 -11.68121 34979 ft 424 kts 217°
2026-04-27 12:04 31.25147 -11.72275 34974 ft 423 kts 217°
2026-04-27 12:04 31.20464 -11.76396 34978 ft 423 kts 217°
2026-04-27 12:05 31.15758 -11.80534 34974 ft 424 kts 217°
2026-04-27 12:05 31.11043 -11.84673 34981 ft 424 kts 217°
2026-04-27 12:06 31.06341 -11.88797 34980 ft 424 kts 217°
2026-04-27 12:06 31.01639 -11.92915 34982 ft 424 kts 217°
2026-04-27 12:07 30.96891 -11.97067 34984 ft 425 kts 217°
2026-04-27 12:07 30.92182 -12.01180 34978 ft 425 kts 217°
2026-04-27 12:08 30.87410 -12.05343 34968 ft 426 kts 217°
2026-04-27 12:08 30.82667 -12.09476 34966 ft 425 kts 217°
2026-04-27 12:09 30.77944 -12.13585 34968 ft 424 kts 217°
2026-04-27 12:09 30.73193 -12.17713 34973 ft 426 kts 217°
2026-04-27 12:10 30.68449 -12.21832 34969 ft 426 kts 217°
2026-04-27 12:10 30.63709 -12.25942 34967 ft 426 kts 217°
2026-04-27 12:11 30.58958 -12.30057 34974 ft 426 kts 217°
2026-04-27 12:11 30.54208 -12.34165 34973 ft 424 kts 217°
2026-04-27 12:12 30.49476 -12.38250 34972 ft 424 kts 217°
2026-04-27 12:12 30.44755 -12.42312 34974 ft 424 kts 217°
2026-04-27 12:13 30.40017 -12.46380 34979 ft 424 kts 217°
2026-04-27 12:13 30.35258 -12.50460 34979 ft 425 kts 217°
2026-04-27 12:14 30.30526 -12.54514 34982 ft 426 kts 217°
2026-04-27 12:14 30.25754 -12.58598 34978 ft 425 kts 217°
2026-04-27 12:15 30.21002 -12.62659 34979 ft 424 kts 217°
2026-04-27 12:15 30.16277 -12.66691 34980 ft 425 kts 217°
2026-04-27 12:16 30.11514 -12.70745 34981 ft 424 kts 216°
2026-04-27 12:16 30.06543 -12.74415 34983 ft 426 kts 210°
2026-04-27 12:17 30.01344 -12.77706 34983 ft 426 kts 209°
2026-04-27 12:17 29.96135 -12.80934 34986 ft 426 kts 209°
2026-04-27 12:18 29.90902 -12.84215 34984 ft 426 kts 209°
2026-04-27 12:18 29.85697 -12.87508 34988 ft 425 kts 210°
2026-04-27 12:19 29.80533 -12.90787 34985 ft 424 kts 210°
2026-04-27 12:19 29.75331 -12.94093 34990 ft 426 kts 210°
2026-04-27 12:19 29.72760 -12.95726 34845 ft 420 kts 210°
2026-04-27 12:20 29.70222 -12.97338 34601 ft 412 kts 210°
2026-04-27 12:20 29.67754 -12.98903 34291 ft 406 kts 210°
2026-04-27 12:20 29.65283 -13.00470 33833 ft 404 kts 210°
2026-04-27 12:20 29.62820 -13.02032 33339 ft 403 kts 210°
2026-04-27 12:21 29.60375 -13.03583 32839 ft 401 kts 210°
2026-04-27 12:21 29.57934 -13.05130 32357 ft 399 kts 210°
2026-04-27 12:21 29.55518 -13.06660 31862 ft 398 kts 210°
2026-04-27 12:21 29.53104 -13.08188 31378 ft 396 kts 210°
2026-04-27 12:22 29.50713 -13.09699 30901 ft 394 kts 210°
2026-04-27 12:22 29.48298 -13.11225 30417 ft 392 kts 210°
2026-04-27 12:22 29.45919 -13.12728 29920 ft 391 kts 210°
2026-04-27 12:22 29.43534 -13.14233 29426 ft 388 kts 210°
2026-04-27 12:23 29.41180 -13.15719 28953 ft 385 kts 210°
2026-04-27 12:23 29.38849 -13.17189 28480 ft 383 kts 210°
2026-04-27 12:23 29.36534 -13.18649 28019 ft 380 kts 210°
2026-04-27 12:23 29.34213 -13.20053 27560 ft 377 kts 208°
2026-04-27 12:24 29.31842 -13.21384 27094 ft 375 kts 207°
2026-04-27 12:24 29.29499 -13.22653 26633 ft 373 kts 206°
2026-04-27 12:24 29.27158 -13.23909 26177 ft 370 kts 206°
2026-04-27 12:24 29.24835 -13.25158 25721 ft 368 kts 206°
2026-04-27 12:25 29.22527 -13.26405 25274 ft 365 kts 206°
2026-04-27 12:25 29.20246 -13.27642 25004 ft 358 kts 207°
2026-04-27 12:25 29.18007 -13.28861 24476 ft 360 kts 207°
2026-04-27 12:25 29.15744 -13.30097 23872 ft 362 kts 207°
2026-04-27 12:26 29.13470 -13.31342 23348 ft 362 kts 207°
2026-04-27 12:26 29.11216 -13.32576 22941 ft 358 kts 207°
2026-04-27 12:26 29.08968 -13.33805 22493 ft 356 kts 207°
2026-04-27 12:26 29.06738 -13.35024 22060 ft 353 kts 207°
2026-04-27 12:27 29.04528 -13.36231 21630 ft 350 kts 207°
2026-04-27 12:27 29.02367 -13.37411 21247 ft 347 kts 207°
2026-04-27 12:27 29.00198 -13.38597 20803 ft 345 kts 207°
2026-04-27 12:27 28.98051 -13.39772 20390 ft 341 kts 207°
2026-04-27 12:28 28.95897 -13.40948 19965 ft 339 kts 207°
2026-04-27 12:28 28.93785 -13.42099 19555 ft 336 kts 207°
2026-04-27 12:28 28.91683 -13.43246 19173 ft 333 kts 207°
2026-04-27 12:28 28.89589 -13.44391 18755 ft 331 kts 207°
2026-04-27 12:29 28.87521 -13.45519 18328 ft 329 kts 207°
2026-04-27 12:29 28.85480 -13.46631 17917 ft 326 kts 207°
2026-04-27 12:29 28.83417 -13.47755 17487 ft 325 kts 207°
2026-04-27 12:29 28.81399 -13.48859 17068 ft 323 kts 207°
2026-04-27 12:30 28.79376 -13.49965 16651 ft 322 kts 207°
2026-04-27 12:30 28.77350 -13.51071 16237 ft 320 kts 207°
2026-04-27 12:30 28.75367 -13.52153 15849 ft 318 kts 207°
2026-04-27 12:30 28.73379 -13.53238 15460 ft 316 kts 207°
2026-04-27 12:31 28.71394 -13.54321 15043 ft 315 kts 208°
2026-04-27 12:31 28.69409 -13.55401 14632 ft 313 kts 207°
2026-04-27 12:31 28.67456 -13.56462 14241 ft 311 kts 208°
2026-04-27 12:31 28.65500 -13.57524 13845 ft 309 kts 208°
2026-04-27 12:32 28.63564 -13.58573 13444 ft 308 kts 207°
2026-04-27 12:32 28.61639 -13.59617 13071 ft 306 kts 207°
2026-04-27 12:32 28.59722 -13.60656 12685 ft 304 kts 207°
2026-04-27 12:32 28.57810 -13.61691 12316 ft 303 kts 207°
2026-04-27 12:33 28.55925 -13.62710 11931 ft 301 kts 207°
2026-04-27 12:33 28.54029 -13.63734 11537 ft 300 kts 207°
2026-04-27 12:33 28.52136 -13.64732 11150 ft 299 kts 205°
2026-04-27 12:33 28.50221 -13.65680 10778 ft 297 kts 204°
2026-04-27 12:34 28.48325 -13.66592 10467 ft 294 kts 203°
2026-04-27 12:34 28.46436 -13.67421 10183 ft 289 kts 197°
2026-04-27 12:34 28.44478 -13.67775 9868 ft 285 kts 178°
2026-04-27 12:34 28.42524 -13.67541 9546 ft 283 kts 170°
2026-04-27 12:35 28.40579 -13.67135 9162 ft 283 kts 169°
2026-04-27 12:35 28.38636 -13.66736 8779 ft 283 kts 170°
2026-04-27 12:35 28.36685 -13.66361 8406 ft 282 kts 167°
2026-04-27 12:35 28.34826 -13.65734 8200 ft 275 kts 156°
2026-04-27 12:36 28.33147 -13.64781 8096 ft 266 kts 149°
2026-04-27 12:36 28.31561 -13.63727 8112 ft 265 kts 148°
2026-04-27 12:36 28.29931 -13.62641 8105 ft 271 kts 149°
2026-04-27 12:36 28.28296 -13.61591 8103 ft 269 kts 149°
2026-04-27 12:37 28.26649 -13.60561 8116 ft 269 kts 150°
2026-04-27 12:37 28.25002 -13.59578 8116 ft 270 kts 154°
2026-04-27 12:37 28.23224 -13.58957 8103 ft 262 kts 175°
2026-04-27 12:37 28.21402 -13.59068 8101 ft 256 kts 189°
2026-04-27 12:38 28.19733 -13.59691 7941 ft 254 kts 216°
2026-04-27 12:38 28.18555 -13.61157 7711 ft 256 kts 245°
2026-04-27 12:38 28.18098 -13.63074 7383 ft 251 kts 270°
2026-04-27 12:38 28.18194 -13.65021 7096 ft 247 kts 278°
2026-04-27 12:39 28.18390 -13.66937 6809 ft 245 kts 278°
2026-04-27 12:39 28.18586 -13.68847 6534 ft 242 kts 279°
2026-04-27 12:39 28.18777 -13.70739 6266 ft 240 kts 279°
2026-04-27 12:39 28.18966 -13.72618 5996 ft 238 kts 279°
2026-04-27 12:40 28.19152 -13.74473 5728 ft 236 kts 279°
2026-04-27 12:40 28.19338 -13.76310 5464 ft 234 kts 279°
2026-04-27 12:40 28.19522 -13.78140 5198 ft 233 kts 279°
2026-04-27 12:40 28.19700 -13.79959 4931 ft 232 kts 279°
2026-04-27 12:41 28.19876 -13.81763 4702 ft 233 kts 279°
2026-04-27 12:41 28.20138 -13.83559 4612 ft 227 kts 290°
2026-04-27 12:41 28.20874 -13.85086 4412 ft 219 kts 317°
2026-04-27 12:41 28.22014 -13.86199 4227 ft 212 kts 326°
2026-04-27 12:42 28.23319 -13.86959 4046 ft 210 kts 346°
2026-04-27 12:42 28.24764 -13.87149 3758 ft 209 kts
2026-04-27 12:42 28.26199 -13.87080 3550 ft 203 kts
2026-04-27 12:42 28.27604 -13.86968 3268 ft 201 kts
2026-04-27 12:43 28.28993 -13.86904 2988 ft 199 kts
2026-04-27 12:43 28.30376 -13.86867 2717 ft 198 kts
2026-04-27 12:43 28.31748 -13.86824 2448 ft 196 kts
2026-04-27 12:43 28.33094 -13.86778 2182 ft 184 kts
2026-04-27 12:44 28.34331 -13.86737 1937 ft 171 kts
2026-04-27 12:44 28.35470 -13.86700 1720 ft 157 kts
2026-04-27 12:44 28.36525 -13.86665 1512 ft 145 kts
2026-04-27 12:44 28.37495 -13.86632 1338 ft 141 kts
2026-04-27 12:45 28.38479 -13.86603 1142 ft 142 kts
2026-04-27 12:45 28.39474 -13.86568 954 ft 143 kts
2026-04-27 12:45 28.40476 -13.86534 754 ft 142 kts
2026-04-27 12:45 28.41456 -13.86501 578 ft 140 kts
2026-04-27 12:46 28.42431 -13.86466 395 ft 142 kts
2026-04-27 12:46 28.43418 -13.86435 223 ft 142 kts
2026-04-27 12:46 28.44408 -13.86403 46 ft 140 kts
2026-04-27 12:46 28.45254 -13.86378 33 ft 90 kts
2026-04-27 12:47 28.45682 -13.86364 33 ft 45 kts
2026-04-27 12:47 28.45941 -13.86370 33 ft 32 kts 345°
2026-04-27 12:47 28.46103 -13.86451 33 ft 15 kts 332°
2026-04-27 12:47 28.46142 -13.86502 33 ft 8 kts 268°
2026-04-27 12:48 28.46094 -13.86543 33 ft 11 kts 184°
2026-04-27 12:48 28.45998 -13.86546 33 ft 16 kts 181°
2026-04-27 12:48 28.45871 -13.86550 33 ft 20 kts 181°
2026-04-27 12:48 28.45723 -13.86555 33 ft 20 kts 181°
2026-04-27 12:49 28.45624 -13.86558 33 ft 14 kts 181°
2026-04-27 12:49 28.45508 -13.86562 33 ft 17 kts 181°
2026-04-27 12:49 28.45399 -13.86567 33 ft 9 kts 190°
2026-04-27 12:49 28.45369 -13.86628 33 ft 10 kts 271°
2026-04-27 12:50 28.45374 -13.86700 33 ft 10 kts 283°
2026-04-27 12:50 28.45381 -13.86781 33 ft 8 kts 271°
2026-04-27 12:50 28.45381 -13.86821 33 ft 1 kts 271°
2026-04-27 12:50 28.45382 -13.86826 33 ft 0 kts 271°
2026-04-27 12:51 28.45382 -13.86827 33 ft 0 kts 271°